Station CPTR1 - 8452944 - Conimicut Light, RI Image indicating link to RSS feed of recent meteorological observations for station CPTR1


Conditions at CPTR1 as of
(4:48 pm EDT)
2048 GMT on 07/19/2024:
     

Click on the graph icon in the table below to see a time series plot of the last five days of that observation.

5-day plot - Wind Direction Wind Direction (WDIR):SSE ( 150 deg true )
5-day plot - Wind Speed Wind Speed (WSPD): 12.0 kts
5-day plot - Wind Gust Wind Gust (GST): 15.0 kts
5-day plot - Atmospheric Pressure Atmospheric Pressure (PRES):30.07 in
5-day plot - Water Temperature Water Temperature (WTMP): 77.5 °F
5-day plot - Wind Speed at 10 Meters Wind Speed at 10 meters (WSPD10M): 11.7 kts
5-day plot - Wind Speed at 20 Meters Wind Speed at 20 meters (WSPD20M): 11.7 kts
5-day plot -  Wind Speed, Wind Gust and Atmospheric Pressure Combined plot of Wind Speed, Gust, and Air Pressure
NOS Water Level Observation Network Water Level
Previous observations
TIME
(EDT)
5-day plot - Wind Direction
WDIR
 
5-day plot - Wind Speed
WSPD
kts
5-day plot - Wind Gust
GST
kts
5-day plot - Wave Height
WVHT
ft
5-day plot - Dominant Wave Period
DPD
sec
5-day plot - Average Wave Period
APD
sec
5-day plot - Mean Wave Direction
MWD
 
5-day plot - Atmospheric Pressure
PRES
in
5-day plot - Pressure Tendency
PTDY
in
5-day plot - Air Temperature
ATMP
°F
5-day plot - Water Temperature
WTMP
°F
5-day plot - Dew Point
DEWP
°F
5-day plot - Salinity
SAL
psu
5-day plot - Visibility
VIS
nmi
5-day plot - Tide (above MLLW)
TIDE
ft
2024-07-19 04:42 pmSSE 13.0 15.0----30.07-- 77.4----
2024-07-19 04:36 pmSSE 14.0 15.9----30.07-- 77.5----
2024-07-19 04:30 pmSSE 15.0 15.9----30.07- 74.7 77.0----
2024-07-19 04:24 pmSSE 14.0 15.9----30.07- 74.5 77.2----
2024-07-19 04:18 pmSSE 13.0 15.0----30.07- 74.7 76.6----
2024-07-19 04:12 pmSSE 12.0 14.0----30.07- 74.8 77.2----
2024-07-19 04:06 pmSSE 12.0 14.0----30.07- 74.8 77.2----
2024-07-19 04:00 pmSSE 14.0 14.0----30.07-0.02 74.7 76.3----
2024-07-19 03:54 pmSSE 12.0 14.0----30.07- 75.0 74.8----
2024-07-19 03:48 pmSSE 12.0 14.0----30.07- 75.0 73.4----
2024-07-19 03:42 pmSSE 11.1 13.0----30.07- 75.2 76.1----
2024-07-19 03:36 pm S 9.9 13.0----30.07- 75.4 76.8----
2024-07-19 03:30 pm S 12.0 13.0----30.07- 75.2 77.5----
2024-07-19 03:24 pm S 11.1 13.0----30.07- 75.4 78.1----
2024-07-19 03:18 pmSSE 12.0 14.0----30.07- 75.2 78.6----
2024-07-19 03:12 pmSSE 11.1 14.0----30.07- 75.4 78.3----
2024-07-19 03:06 pmSSE 12.0 14.0----30.07- 75.0 77.9----
2024-07-19 03:00 pmSSE 11.1 14.0----30.07-0.01 75.2 77.7----
2024-07-19 02:54 pmSSE 12.0 14.0----30.07- 75.0 77.7----
2024-07-19 02:48 pmSSE 14.0 15.0----30.07- 74.8 78.4----
2024-07-19 02:42 pmSSE 12.0 13.0----30.07- 75.4 78.3----
2024-07-19 02:36 pm S 9.9 11.1----30.07- 76.3 78.1----
2024-07-19 02:30 pmESE 4.1 5.1----30.08- 76.3 77.9----
2024-07-19 02:24 pm SE 4.1 5.1----30.07- 75.9 77.4----
2024-07-19 02:18 pmESE 1.9 4.1----30.07- 75.9 77.4----
2024-07-19 02:12 pm SE 5.1 6.0----30.08- 75.6 76.6----
2024-07-19 02:06 pmESE 5.1 6.0----30.08- 75.4 76.5----
2024-07-19 02:00 pm E 5.1 7.0----30.08-0.01 75.6 75.7----
2024-07-19 01:54 pm SE 5.1 6.0----30.08- 75.0 75.6----
2024-07-19 01:48 pmSSE 2.9 6.0----30.08- 75.4 75.6----
2024-07-19 01:42 pm SE 6.0 8.0----30.08- 74.7 75.6----
2024-07-19 01:36 pm SE 5.1 7.0----30.08- 74.8 75.7----
2024-07-19 01:30 pm SE 7.0 8.0----30.09- 74.5 75.9----
2024-07-19 01:24 pm SE 8.0 8.0----30.09- 74.3 76.1----
2024-07-19 01:18 pm SE 6.0 7.0----30.09- 74.3 76.5----
2024-07-19 01:12 pm SE 5.1 8.0----30.09- 74.3 77.2----
2024-07-19 01:06 pmSSE 6.0 8.0----30.09- 74.5 77.9----
2024-07-19 01:00 pm- 0.0 1.9----30.09+0.00 75.9 77.7----
2024-07-19 12:54 pm NW 1.9 5.1----30.09- 78.6 77.9----
2024-07-19 12:48 pmNNW 4.1 5.1----30.09- 78.4 78.1----
2024-07-19 12:42 pm NW 4.1 6.0----30.09- 77.9 78.1----
2024-07-19 12:36 pm N 5.1 6.0----30.09- 77.7 77.9----
2024-07-19 12:30 pmNNW 4.1 4.1----30.09- 78.6 77.7----
2024-07-19 12:24 pmNNW 2.9 2.9----30.09- 78.4 77.5----
2024-07-19 12:18 pmNNW 1.9 4.1----30.09- 77.7 77.2----
2024-07-19 12:12 pm NW 4.1 5.1----30.09- 76.5 77.0----
2024-07-19 12:06 pm NW 2.9 5.1----30.09- 76.3 76.8----
2024-07-19 12:00 pmWNW 1.0 4.1----30.09+0.00 73.9 76.8----
2024-07-19 11:54 amNNW 2.9 4.1----30.09- 76.3 76.8----
2024-07-19 11:48 amNNW 4.1 5.1----30.09- 75.9 76.6----
2024-07-19 11:42 am NW 5.1 7.0----30.09- 74.5 76.5----
2024-07-19 11:36 am NW 6.0 7.0----30.09- 75.9 76.3----
2024-07-19 11:30 amNNW 6.0 8.0----30.09- 74.1 76.1----
2024-07-19 11:24 am NW 6.0 8.0----30.09- 73.2 76.1----
2024-07-19 11:18 am NW 4.1 6.0----30.09- 72.7 76.1----
2024-07-19 11:12 am NW 6.0 8.0----30.09- 73.6 76.1----
2024-07-19 11:06 am NW 5.1 7.0----30.09- 72.3 76.1----
2024-07-19 11:00 am NW 7.0 8.0----30.09+0.01 74.1 76.3----
2024-07-19 10:54 am NW 5.1 8.0----30.09- 73.6 76.1----
2024-07-19 10:48 am NW 6.0 7.0----30.09- 73.0 76.1----
2024-07-19 10:42 am NW 6.0 8.0----30.09- 72.1 76.3----
2024-07-19 10:36 am NW 6.0 7.0----30.09- 72.5 76.3----
2024-07-19 10:30 amNNW 6.0 8.0----30.09- 72.5 76.3----
2024-07-19 10:24 am NW 7.0 8.0----30.09- 71.2 76.5----
2024-07-19 10:18 am NW 5.1 8.0----30.09- 70.9 76.6----
2024-07-19 10:12 am NW 8.9 11.1----30.09- 70.3 76.6----
2024-07-19 10:06 am NW 8.0 9.9----30.09- 70.3 76.8----
2024-07-19 10:00 amWNW 8.0 11.1----30.09+0.04 69.8 76.8----
2024-07-19 09:54 amWNW 9.9 12.0----30.09- 69.6 77.0----
2024-07-19 09:48 amWNW 9.9 11.1----30.09- 69.6 77.2----
2024-07-19 09:42 amWNW 9.9 12.0----30.09- 69.4 77.2----
2024-07-19 09:36 amWNW 8.9 13.0----30.09- 69.6 77.0----
2024-07-19 09:30 am NW 8.9 12.0----30.09- 69.6 77.0----
2024-07-19 09:24 am NW 11.1 12.0----30.09- 69.3 76.8----
2024-07-19 09:18 am NW 9.9 12.0----30.09- 69.1 76.8----
2024-07-19 09:12 am NW 11.1 13.0----30.09- 69.1 77.0----
2024-07-19 09:06 am NW 11.1 12.0----30.09- 68.9 77.0----
2024-07-19 09:00 am NW 8.9 11.1----30.09+0.05 69.1 77.0----
2024-07-19 08:54 am NW 8.0 11.1----30.09- 68.9 77.0----
2024-07-19 08:48 am NW 9.9 12.0----30.09- 69.4 77.0----
2024-07-19 08:42 amNNW 9.9 11.1----30.09- 69.6 77.0----
2024-07-19 08:36 am NW 9.9 12.0----30.09- 68.5 76.8----
2024-07-19 08:30 am NW 8.9 12.0----30.09- 68.9 77.0----
2024-07-19 08:24 amNNW 8.9 12.0----30.08- 68.7 77.0----
2024-07-19 08:18 am NW 8.9 12.0----30.08- 68.2 77.0----
2024-07-19 08:12 amNNW 11.1 12.0----30.08- 68.5 77.0----
2024-07-19 08:06 amNNW 8.9 14.0----30.08- 68.4 77.0----
2024-07-19 08:00 am NW 11.1 15.0----30.08+0.07 68.4 77.0----
2024-07-19 07:54 am NW 12.0 14.0----30.08- 67.8 77.0----
2024-07-19 07:48 am NW 9.9 12.0----30.07-- 77.0----
2024-07-19 07:42 am NW 8.9 11.1----30.07-- 77.2----
2024-07-19 07:36 amNNW 8.0 11.1----30.07-- 77.2----
2024-07-19 07:30 amNNW 8.9 12.0----30.07- 68.2 77.2----
2024-07-19 07:24 amNNW 9.9 12.0----30.06- 68.0 77.0----
2024-07-19 07:18 amNNW 9.9 13.0----30.06- 67.8 76.6----
2024-07-19 07:12 amNNW 9.9 12.0----30.06- 67.8 76.3----
2024-07-19 07:06 amNNW 8.9 11.1----30.06- 67.8 75.6----
2024-07-19 07:00 amNNW 8.9 11.1----30.06+0.06 67.5 75.2----
2024-07-19 06:54 amNNW 8.0 11.1----30.05- 67.5 75.2----
2024-07-19 06:48 amNNW 8.9 11.1----30.05-- 75.0----
2024-07-19 06:42 amNNW 8.0 11.1----30.05-- 74.8----
2024-07-19 06:36 amNNW 9.9 11.1----30.05-- 75.0----
2024-07-19 06:30 amNNW 8.9 11.1----30.04- 67.3 75.0----
2024-07-19 06:24 amNNW 8.9 12.0----30.04- 67.1 75.0----
2024-07-19 06:18 amNNW 8.9 12.0----30.04- 67.1 75.0----
2024-07-19 06:12 amNNW 8.9 12.0----30.04- 67.1 74.7----
2024-07-19 06:06 amNNW 8.9 12.0----30.03- 66.7 74.5----
2024-07-19 06:00 amNNW 9.9 11.1----30.03+0.05 67.1 74.5----
2024-07-19 05:54 amNNW 9.9 13.0----30.03- 67.3 74.3----
2024-07-19 05:48 amNNW 12.0 13.0----30.03- 67.1 73.9----
2024-07-19 05:42 amNNW 9.9 12.0----30.03- 67.3 74.1----
2024-07-19 05:36 amNNW 12.0 14.0----30.02- 67.5 74.5----
2024-07-19 05:30 amNNW 11.1 15.0----30.02- 67.6 74.7----
2024-07-19 05:24 amNNW 12.0 14.0----30.02- 67.6 75.2----
2024-07-19 05:18 amNNW 13.0 14.0----30.01- 67.8 75.4----
2024-07-19 05:12 amNNW 13.0 15.0----30.01- 67.8 75.9----
2024-07-19 05:06 amNNW 12.0 17.1----30.01- 68.0 76.6----
2024-07-19 05:00 amNNW 14.0 15.9----30.01+0.04 68.0 77.2----
2024-07-19 04:54 amNNW 13.0 17.1----30.01- 68.2 77.5----
2024-07-19 04:48 amNNW 14.0 17.1----30.00- 68.4 77.7----
2024-07-19 04:42 amNNW 12.0 15.0----30.00- 68.5 77.7----
2024-07-19 04:36 amNNW 11.1 13.0----30.00- 68.4 77.7----
2024-07-19 04:30 amNNW 12.0 14.0----30.00- 68.5 77.9----
2024-07-19 04:24 amNNW 9.9 13.0----30.00- 68.7 77.9----
2024-07-19 04:18 amNNW 9.9 12.0----30.00- 69.1 77.9----
2024-07-19 04:12 amNNW 11.1 13.0----30.00- 69.1 78.3----
2024-07-19 04:06 amNNW 12.0 14.0----30.00- 68.9 78.3----
2024-07-19 04:00 amNNW 12.0 14.0----30.00+0.03 69.1 78.3----
2024-07-19 03:54 amNNW 12.0 14.0----29.99- 69.3 78.4----
2024-07-19 03:48 amNNW 12.0 13.0----29.99- 69.3 78.4----
2024-07-19 03:42 amNNW 12.0 14.0----29.99- 69.4 78.4----
2024-07-19 03:36 amNNW 11.1 13.0----29.99- 70.0 78.3----
2024-07-19 03:30 amNNW 11.1 13.0----29.99- 70.0 78.3----
2024-07-19 03:24 am NW 11.1 13.0----29.99- 70.3 78.6----
2024-07-19 03:18 am NW 12.0 15.0----29.99- 70.5 78.6----
2024-07-19 03:12 am NW 12.0 15.0----29.98- 70.7 78.8----
2024-07-19 03:06 am NW 14.0 18.1----29.98- 70.7 78.8----
2024-07-19 03:00 am NW 13.0 15.0----29.98+0.01 70.9 78.8----
2024-07-19 02:54 am NW 13.0 15.0----29.98- 71.1 79.0----
2024-07-19 02:48 am NW 12.0 15.0----29.98- 71.4 79.0----
2024-07-19 02:42 am NW 14.0 15.9----29.98- 71.1 79.2----
2024-07-19 02:36 am NW 14.0 15.9----29.98- 71.4 79.3----
2024-07-19 02:30 am NW 14.0 15.0----29.98- 71.2 79.3----
2024-07-19 02:24 am NW 14.0 15.9----29.98- 71.1 79.3----
2024-07-19 02:18 amWNW 15.0 17.1----29.98- 71.1 79.3----
2024-07-19 02:12 amWNW 15.9 17.1----29.98- 71.4 79.3----
2024-07-19 02:06 amWNW 15.9 18.1----29.98- 71.6 79.5----
2024-07-19 02:00 amWNW 15.9 18.1----29.97+0.01 71.8 79.5----
2024-07-19 01:54 am NW 14.0 17.1----29.97- 72.0 79.9----
2024-07-19 01:48 am NW 13.0 15.9----29.97- 72.1-----
2024-07-19 01:42 am NW 15.0 17.1----29.97- 72.1-----
2024-07-19 01:36 amWNW 12.0 15.0----29.97- 72.3-----
2024-07-19 01:30 am NW 13.0 15.9----29.97- 72.5 79.7----
2024-07-19 01:24 amWNW 12.0 15.0----29.97- 72.5 79.7----
2024-07-19 01:18 amWNW 12.0 14.0----29.97- 72.7 79.5----
2024-07-19 01:12 amWNW 9.9 13.0----29.97- 72.9 79.5----
2024-07-19 01:06 amWNW 9.9 11.1----29.97- 72.9 79.5----
2024-07-19 01:00 am W 8.9 12.0----29.97+0.02 73.0 79.5----
2024-07-19 12:54 amWNW 9.9 13.0----29.97- 73.4 79.9----
2024-07-19 12:48 amWNW 12.0 13.0----29.97- 73.6 79.7----
2024-07-19 12:42 amWNW 12.0 12.0----29.96- 73.6 80.1----
2024-07-19 12:36 amWNW 12.0 14.0----29.96- 73.4 80.2----
2024-07-19 12:30 amWNW 11.1 12.0----29.97- 73.6 80.2----
2024-07-19 12:24 amWNW 9.9 11.1----29.97- 73.8 80.2----
2024-07-19 12:18 amWNW 8.0 11.1----29.97- 73.4 80.2----
2024-07-19 12:12 am W 8.0 9.9----29.97- 72.9 80.2----
2024-07-19 12:06 am W 8.9 9.9----29.97- 73.4 80.4----
2024-07-19 12:00 am W 8.0 8.9----29.97+0.04 73.0 80.4----
2024-07-18 11:54 pm W 8.0 8.9----29.97- 73.2 80.4----
2024-07-18 11:48 pm W 8.0 9.9----29.97- 73.0 80.6----
2024-07-18 11:42 pm W 7.0 8.9----29.97- 73.0 80.6----
2024-07-18 11:36 pmWSW 8.0 8.9----29.97- 73.0 80.8----
2024-07-18 11:30 pmWSW 8.0 8.9----29.97- 73.4 80.8----
2024-07-18 11:24 pmWSW 8.0 8.9----29.97- 73.2 80.8----
2024-07-18 11:18 pmWSW 8.9 9.9----29.97- 73.6 80.8----
2024-07-18 11:12 pmWSW 8.0 9.9----29.97- 73.8 80.8----
2024-07-18 11:06 pmWSW 8.9 9.9----29.97- 74.1 81.0----
2024-07-18 11:00 pmWSW 8.0 9.9----29.96+0.05 74.3 81.0----
2024-07-18 10:54 pmWSW 8.0 9.9----29.96- 74.5 81.0----
2024-07-18 10:48 pmWSW 8.0 9.9----29.96- 74.7 80.8----
2024-07-18 10:42 pmWSW 8.0 8.9----29.96- 74.7 81.0----
2024-07-18 10:36 pmWSW 8.0 8.9----29.96- 74.8 80.8----
2024-07-18 10:30 pmWSW 8.0 9.9----29.96- 75.2 80.8----
2024-07-18 10:24 pm W 8.9 12.0----29.95- 75.7 81.0----
2024-07-18 10:18 pm W 9.9 12.0----29.95- 75.9 81.1----
2024-07-18 10:12 pm W 8.9 11.1----29.95- 76.1 81.1----
2024-07-18 10:06 pm W 11.1 12.0----29.95- 76.3 81.1----
2024-07-18 10:00 pm W 9.9 11.1----29.95+0.07 76.6 81.3----
2024-07-18 09:54 pm W 9.9 12.0----29.95- 76.8 81.5----
2024-07-18 09:48 pmWSW 8.9 9.9----29.95- 76.8 81.5----
2024-07-18 09:42 pmWSW 8.9 11.1----29.95- 77.4 81.5----
2024-07-18 09:36 pmWSW 8.9 11.1----29.95- 77.4 81.5----
2024-07-18 09:30 pm W 9.9 12.0----29.94- 77.5 81.5----
2024-07-18 09:24 pm W 11.1 12.0----29.94- 77.7 81.7----
2024-07-18 09:18 pm W 8.9 9.9----29.94- 78.1 81.7----
2024-07-18 09:12 pm W 8.9 11.1----29.94- 78.1 81.7----
2024-07-18 09:06 pm W 9.9 12.0----29.93- 78.3 81.7----
2024-07-18 09:00 pm W 9.9 12.0----29.93+0.07 78.3 81.9----
2024-07-18 08:54 pm W 11.1 13.0----29.93- 78.4 81.9----
2024-07-18 08:48 pm W 12.0 14.0----29.93- 78.4 81.9----
2024-07-18 08:42 pm W 12.0 14.0----29.93- 78.4 81.9----
2024-07-18 08:36 pm W 13.0 15.0----29.93- 78.6 81.9----
2024-07-18 08:30 pm W 11.1 14.0----29.92- 78.6 82.0----
2024-07-18 08:24 pm W 14.0 17.1----29.92- 78.8 82.0----
2024-07-18 08:18 pm W 13.0 15.0----29.92- 79.0 82.2----
2024-07-18 08:12 pm W 11.1 14.0----29.92- 79.2 82.2----
2024-07-18 08:06 pmWNW 13.0 15.9----29.91- 79.2 82.2----
2024-07-18 08:00 pm W 11.1 14.0----29.91+0.05 79.3 82.2----
2024-07-18 07:54 pm W 11.1 15.9----29.91- 79.5 82.0----
2024-07-18 07:48 pm W 12.0 15.0----29.91- 79.9 82.0----
2024-07-18 07:42 pmWNW 12.0 14.0----29.90- 79.9 82.0----
2024-07-18 07:36 pmWNW 14.0 17.1----29.90- 80.1 81.5----
2024-07-18 07:30 pm W 15.0 18.1----29.89- 80.2 80.1----
2024-07-18 07:24 pm W 14.0 19.0----29.89- 80.4 80.1----
2024-07-18 07:00 pm W 15.9 20.0----29.88+0.01 81.1 78.8----
2024-07-18 06:54 pm W 18.1 20.0----29.87- 81.5 78.3----
2024-07-18 06:48 pm W 13.0 15.9----29.87- 81.9 78.4----
2024-07-18 06:42 pm W 13.0 15.0----29.87- 82.4 78.1----
2024-07-18 06:36 pm W 13.0 14.0----29.87- 82.0 78.4----
2024-07-18 06:30 pm W 12.0 14.0----29.87- 82.0 79.3----
2024-07-18 06:24 pm W 9.9 13.0----29.87- 82.2 79.9----
2024-07-18 06:18 pm W 12.0 14.0----29.87- 82.4 80.2----
2024-07-18 06:12 pm W 12.0 14.0----29.86- 82.8 80.6----
2024-07-18 06:06 pm W 9.9 12.0----29.86- 82.8 80.6----
2024-07-18 06:00 pm W 11.1 15.0----29.86+0.00 82.9 80.6----
2024-07-18 05:54 pm W 13.0 15.9----29.86- 82.9 80.8----
2024-07-18 05:48 pm W 14.0 17.1----29.86- 82.8 81.3----
2024-07-18 05:42 pm W 9.9 12.0----29.86- 82.9 81.3----
2024-07-18 05:36 pm W 11.1 13.0----29.86- 82.8 81.3----
2024-07-18 05:30 pm W 8.0 9.9----29.86- 82.6 81.1----
2024-07-18 05:24 pmWSW 7.0 9.9----29.86- 82.2 81.0----
2024-07-18 05:18 pm W 7.0 12.0----29.86- 82.2 80.8----
2024-07-18 05:12 pm W 11.1 13.0----29.86- 82.4 80.6----
2024-07-18 05:06 pmWSW 13.0 14.0----29.86- 82.4 80.4----
2024-07-18 05:00 pmWSW 7.0 8.9----29.86+0.00 82.8 80.6----
2024-07-18 04:54 pm W 9.9 13.0----29.86- 82.4 80.4----